N4908G KOKC-KDFW

Flight info

Callsign N4908G
Flight time 0h 37m
Altitude 19000
Route MUDDE3 MUDDE RBUKL VKTRY2
Aircraft E50P/L-VGDW/C

Departure

Time 2026-05-04 04:06
Airport OKC Will Rogers World Airport (KOKC)

Arrival

Time 2026-05-04 04:44
Airport Dallas Fort Worth International Airport (KDFW)
Time Latitude Longitude Altitude Speed Heading
2026-05-04 03:55 35.39612 -97.58529 1282 ft 0 kts 180°
2026-05-04 04:02 35.39610 -97.58529 1282 ft 0 kts 182°
2026-05-04 04:02 35.39596 -97.58561 1283 ft 7 kts 277°
2026-05-04 04:03 35.39623 -97.58581 1282 ft 6 kts 343°
2026-05-04 04:03 35.39670 -97.58600 1282 ft 9 kts 342°
2026-05-04 04:03 35.39719 -97.58643 1283 ft 9 kts 271°
2026-05-04 04:03 35.39734 -97.58716 1285 ft 10 kts 322°
2026-05-04 04:04 35.39754 -97.58736 1283 ft 1 kts 262°
2026-05-04 04:04 35.39747 -97.58747 1283 ft 2 kts 225°
2026-05-04 04:04 35.39725 -97.58774 1286 ft 6 kts 225°
2026-05-04 04:04 35.39720 -97.58807 1284 ft 6 kts 272°
2026-05-04 04:05 35.39721 -97.58833 1284 ft 0 kts 271°
2026-05-04 04:05 35.39721 -97.58845 1284 ft 5 kts 271°
2026-05-04 04:05 35.39707 -97.58893 1287 ft 7 kts 205°
2026-05-04 04:05 35.39665 -97.58896 1286 ft 24 kts 180°
2026-05-04 04:06 35.39251 -97.58899 1290 ft 92 kts 182°
2026-05-04 04:06 35.38496 -97.58887 1628 ft 124 kts 181°
2026-05-04 04:06 35.37582 -97.58849 2468 ft 128 kts 183°
2026-05-04 04:06 35.36722 -97.58833 3464 ft 122 kts 186°
2026-05-04 04:07 35.35846 -97.58787 4256 ft 131 kts 184°
2026-05-04 04:07 35.34911 -97.58711 4982 ft 138 kts 185°
2026-05-04 04:07 35.33929 -97.58641 5731 ft 144 kts 185°
2026-05-04 04:07 35.32915 -97.58551 6507 ft 148 kts 186°
2026-05-04 04:08 35.31863 -97.58468 7217 ft 153 kts 184°
2026-05-04 04:08 35.30780 -97.58372 7883 ft 162 kts 182°
2026-05-04 04:08 35.29611 -97.58288 8427 ft 175 kts 182°
2026-05-04 04:08 35.28341 -97.58175 8995 ft 189 kts 180°
2026-05-04 04:09 35.27018 -97.58064 9721 ft 192 kts 181°
2026-05-04 04:09 35.25673 -97.57955 10392 ft 195 kts 180°
2026-05-04 04:09 35.24313 -97.57841 11080 ft 196 kts 180°
2026-05-04 04:09 35.22945 -97.57727 11770 ft 198 kts 180°
2026-05-04 04:10 35.21585 -97.57614 12441 ft 200 kts 180°
2026-05-04 04:10 35.20179 -97.57499 12995 ft 210 kts 180°
2026-05-04 04:10 35.18661 -97.57379 13334 ft 227 kts 180°
2026-05-04 04:10 35.17050 -97.57243 13723 ft 241 kts 179°
2026-05-04 04:11 35.15301 -97.57100 13967 ft 256 kts 179°
2026-05-04 04:11 35.13551 -97.56949 14698 ft 246 kts 179°
2026-05-04 04:11 35.11837 -97.56808 15307 ft 248 kts 180°
2026-05-04 04:11 35.10105 -97.56671 15829 ft 251 kts 180°
2026-05-04 04:12 35.08350 -97.56523 16390 ft 254 kts 179°
2026-05-04 04:12 35.06577 -97.56377 16955 ft 257 kts 180°
2026-05-04 04:12 35.04783 -97.56233 17548 ft 259 kts 180°
2026-05-04 04:12 35.02972 -97.56082 18116 ft 262 kts 180°
2026-05-04 04:13 35.01142 -97.55932 18649 ft 265 kts 180°
2026-05-04 04:13 34.99280 -97.55680 18966 ft 278 kts 177°
2026-05-04 04:13 34.97293 -97.55391 18971 ft 295 kts 177°
2026-05-04 04:13 34.95201 -97.55098 18975 ft 309 kts 177°
2026-05-04 04:14 34.93026 -97.54863 18974 ft 317 kts 183°
2026-05-04 04:14 34.90805 -97.55013 18984 ft 323 kts 187°
2026-05-04 04:14 34.88529 -97.55119 18987 ft 331 kts 185°
2026-05-04 04:14 34.86204 -97.55200 18993 ft 336 kts 185°
2026-05-04 04:15 34.83853 -97.55321 19004 ft 340 kts 186°
2026-05-04 04:15 34.81472 -97.55452 19000 ft 344 kts 186°
2026-05-04 04:15 34.79096 -97.55568 19003 ft 347 kts 185°
2026-05-04 04:15 34.76677 -97.55681 19007 ft 349 kts 185°
2026-05-04 04:16 34.74246 -97.55802 19008 ft 350 kts 185°
2026-05-04 04:16 34.71802 -97.55925 19010 ft 352 kts 185°
2026-05-04 04:16 34.69351 -97.56047 19008 ft 353 kts 185°
2026-05-04 04:16 34.66896 -97.56169 19007 ft 354 kts 185°
2026-05-04 04:17 34.64438 -97.56286 19006 ft 354 kts 185°
2026-05-04 04:17 34.61974 -97.56408 19009 ft 354 kts 185°
2026-05-04 04:17 34.59508 -97.56533 19008 ft 355 kts 185°
2026-05-04 04:17 34.57041 -97.56653 19008 ft 355 kts 185°
2026-05-04 04:18 34.54567 -97.56775 19008 ft 355 kts 185°
2026-05-04 04:18 34.52093 -97.56894 18998 ft 356 kts 185°
2026-05-04 04:18 34.49619 -97.57017 19000 ft 356 kts 185°
2026-05-04 04:18 34.47146 -97.57140 19002 ft 356 kts 185°
2026-05-04 04:19 34.44703 -97.57259 19006 ft 356 kts 185°
2026-05-04 04:19 34.42232 -97.57380 19003 ft 356 kts 185°
2026-05-04 04:19 34.39754 -97.57501 19007 ft 356 kts 185°
2026-05-04 04:19 34.37279 -97.57623 19005 ft 356 kts 185°
2026-05-04 04:20 34.34808 -97.57743 19006 ft 356 kts 185°
2026-05-04 04:20 34.32334 -97.57865 19003 ft 356 kts 185°
2026-05-04 04:20 34.29858 -97.57987 19004 ft 356 kts 185°
2026-05-04 04:20 34.27386 -97.58106 19006 ft 356 kts 185°
2026-05-04 04:21 34.24913 -97.58228 19007 ft 356 kts 185°
2026-05-04 04:21 34.22439 -97.58348 19006 ft 356 kts 185°
2026-05-04 04:21 34.19968 -97.58469 19006 ft 355 kts 185°
2026-05-04 04:21 34.17495 -97.58589 19010 ft 355 kts 185°
2026-05-04 04:22 34.15030 -97.58710 19015 ft 355 kts 185°
2026-05-04 04:22 34.12554 -97.58830 19011 ft 355 kts 185°
2026-05-04 04:22 34.10082 -97.58951 19008 ft 355 kts 185°
2026-05-04 04:22 34.07611 -97.59071 19008 ft 355 kts 185°
2026-05-04 04:23 34.05144 -97.59191 19011 ft 355 kts 185°
2026-05-04 04:23 34.02673 -97.59311 19011 ft 355 kts 185°
2026-05-04 04:23 34.00197 -97.59431 19013 ft 355 kts 185°
2026-05-04 04:23 33.97731 -97.59551 19015 ft 355 kts 185°
2026-05-04 04:24 33.95258 -97.59670 19015 ft 355 kts 185°
2026-05-04 04:24 33.92787 -97.59792 19013 ft 355 kts 185°
2026-05-04 04:24 33.90349 -97.59909 19014 ft 355 kts 185°
2026-05-04 04:24 33.87937 -97.60031 19016 ft 333 kts 186°
2026-05-04 04:25 33.85713 -97.60234 18674 ft 315 kts 187°
2026-05-04 04:25 33.83435 -97.60430 17235 ft 343 kts 186°
2026-05-04 04:25 33.81018 -97.60621 16538 ft 344 kts 186°
2026-05-04 04:25 33.78644 -97.60810 15770 ft 340 kts 186°
2026-05-04 04:26 33.76290 -97.61013 15015 ft 337 kts 186°
2026-05-04 04:26 33.73958 -97.61212 14287 ft 334 kts 186°
2026-05-04 04:26 33.71680 -97.61404 13598 ft 331 kts 185°
2026-05-04 04:26 33.69472 -97.61582 13698 ft 305 kts 186°
2026-05-04 04:27 33.67416 -97.61753 13789 ft 288 kts 186°
2026-05-04 04:27 33.65442 -97.61922 13411 ft 287 kts 186°
2026-05-04 04:27 33.63366 -97.62101 12166 ft 313 kts 186°
2026-05-04 04:27 33.61115 -97.62290 11423 ft 327 kts 186°
2026-05-04 04:28 33.58864 -97.62468 11042 ft 323 kts 186°
2026-05-04 04:28 33.56669 -97.62648 10975 ft 310 kts 186°
2026-05-04 04:28 33.54563 -97.62828 10983 ft 298 kts 186°
2026-05-04 04:28 33.52525 -97.62999 10982 ft 289 kts 186°
2026-05-04 04:29 33.50533 -97.63164 10987 ft 287 kts 186°
2026-05-04 04:29 33.48516 -97.63330 10982 ft 294 kts 186°
2026-05-04 04:29 33.46488 -97.63501 10863 ft 289 kts 186°
2026-05-04 04:29 33.44488 -97.63665 10666 ft 286 kts 186°
2026-05-04 04:30 33.42507 -97.63823 10452 ft 286 kts 185°
2026-05-04 04:30 33.40505 -97.63662 10208 ft 293 kts 169°
2026-05-04 04:30 33.38571 -97.62843 9946 ft 298 kts 155°
2026-05-04 04:30 33.36850 -97.61412 9298 ft 312 kts 138°
2026-05-04 04:31 33.35439 -97.59397 8720 ft 319 kts 126°
2026-05-04 04:31 33.34153 -97.57259 8358 ft 314 kts 127°
2026-05-04 04:31 33.32859 -97.55179 8078 ft 308 kts 128°
2026-05-04 04:31 33.31599 -97.53142 7833 ft 302 kts 127°
2026-05-04 04:32 33.30371 -97.51137 7603 ft 296 kts 127°
2026-05-04 04:32 33.29160 -97.49167 7371 ft 292 kts 128°
2026-05-04 04:32 33.28006 -97.47195 7145 ft 288 kts 122°
2026-05-04 04:32 33.27283 -97.44969 6925 ft 288 kts 106°
2026-05-04 04:33 33.27021 -97.42607 6703 ft 286 kts 94°
2026-05-04 04:33 33.26918 -97.40246 6483 ft 284 kts 95°
2026-05-04 04:33 33.26774 -97.37902 6260 ft 282 kts 96°
2026-05-04 04:33 33.26655 -97.35573 6039 ft 281 kts 95°
2026-05-04 04:34 33.26540 -97.33249 5834 ft 279 kts 95°
2026-05-04 04:34 33.26418 -97.30938 5623 ft 279 kts 96°
2026-05-04 04:34 33.26296 -97.28626 5413 ft 278 kts 96°
2026-05-04 04:34 33.26172 -97.26317 5202 ft 278 kts 96°
2026-05-04 04:35 33.26051 -97.24013 5027 ft 277 kts 96°
2026-05-04 04:35 33.25934 -97.21753 5022 ft 269 kts 96°
2026-05-04 04:35 33.25824 -97.19546 5020 ft 263 kts 96°
2026-05-04 04:35 33.25680 -97.17388 5016 ft 257 kts 101°
2026-05-04 04:36 33.25212 -97.15342 4928 ft 256 kts 111°
2026-05-04 04:36 33.24637 -97.13342 4917 ft 253 kts 111°
2026-05-04 04:36 33.24061 -97.11354 4872 ft 253 kts 112°
2026-05-04 04:36 33.23466 -97.09386 4803 ft 251 kts 117°
2026-05-04 04:37 33.19479 -97.05721 4619 ft 242 kts 152°
2026-05-04 04:37 33.18044 -97.04712 4567 ft 243 kts 152°
2026-05-04 04:38 33.16583 -97.03700 4508 ft 241 kts 153°
2026-05-04 04:38 33.15045 -97.02938 4373 ft 239 kts 166°
2026-05-04 04:38 33.13423 -97.02539 4318 ft 237 kts 176°
2026-05-04 04:38 33.11778 -97.02492 4265 ft 236 kts 183°
2026-05-04 04:39 33.10690 -97.02518 4194 ft 238 kts 182°
2026-05-04 04:39 33.09004 -97.02508 3911 ft 246 kts 181°
2026-05-04 04:39 33.07265 -97.02522 3587 ft 254 kts 182°
2026-05-04 04:39 33.05496 -97.02545 3254 ft 246 kts 181°
2026-05-04 04:40 33.03998 -97.02526 2963 ft 188 kts 182°
2026-05-04 04:40 33.02794 -97.02550 2734 ft 162 kts 183°
2026-05-04 04:40 33.01709 -97.02544 2531 ft 150 kts 181°
2026-05-04 04:40 33.00700 -97.02559 2340 ft 141 kts 183°
2026-05-04 04:41 32.99745 -97.02557 2158 ft 132 kts 180°
2026-05-04 04:41 32.98871 -97.02564 1996 ft 118 kts 184°
2026-05-04 04:41 32.98099 -97.02566 1847 ft 104 kts 181°
2026-05-04 04:41 32.97408 -97.02571 1712 ft 94 kts 184°
2026-05-04 04:42 32.96777 -97.02570 1592 ft 87 kts 180°
2026-05-04 04:42 32.96161 -97.02582 1485 ft 91 kts 185°
2026-05-04 04:42 32.95507 -97.02574 1384 ft 98 kts 180°
2026-05-04 04:42 32.94798 -97.02591 1261 ft 105 kts 182°
2026-05-04 04:43 32.94032 -97.02583 1122 ft 113 kts 179°
2026-05-04 04:43 32.93226 -97.02599 982 ft 119 kts 182°
2026-05-04 04:43 32.92405 -97.02595 846 ft 117 kts 179°
2026-05-04 04:43 32.91641 -97.02596 687 ft 104 kts 180°
2026-05-04 04:44 32.90977 -97.02596 621 ft 84 kts 179°
2026-05-04 04:44 32.90499 -97.02600 624 ft 47 kts 181°
2026-05-04 04:44 32.90189 -97.02606 619 ft 41 kts 181°
2026-05-04 04:44 32.89935 -97.02675 619 ft 26 kts 211°
2026-05-04 04:45 32.89844 -97.02742 619 ft 15 kts 212°
2026-05-04 04:45 32.89793 -97.02782 619 ft 0 kts 233°
2026-05-04 04:47 32.90068 -97.02801 619 ft 16 kts
2026-05-04 04:47 32.90188 -97.02801 619 ft 18 kts 359°
2026-05-04 04:47 32.90322 -97.02800 626 ft 21 kts
2026-05-04 04:47 32.90475 -97.02800 619 ft 23 kts
2026-05-04 04:48 32.90639 -97.02799 619 ft 25 kts 360°